Weather History for Alliance, NE

Change the Weather History Date:

Thursday, February 14, 2013

  Actual Average Record
Temperature  
Mean Temperature -6 °C -3 °C  
Max Temperature 1 °C 5 °C 20 °C (1954)
Min Temperature -13 °C -11 °C -30 °C (1936)
Degree Days  
Heating Degree Days 44 38  
Month to date heating degree days 500 552  
Since 1 July heating degree days 4569 4897  
Cooling Degree Days 0 0  
Month to date cooling degree days 0 0  
Year to date cooling degree days 0 0  
Moisture  
Dew Point -8 °C    
Average Humidity 68    
Maximum Humidity 92    
Minimum Humidity 43    
Precipitation  
Precipitation 0.00 mm 0.51 mm 0.51 mm (1900)
Month to date precipitation T 0.18  
Year to date precipitation 0.22 0.36  
Sea Level Pressure  
Sea Level Pressure 1023 hPa    
Wind  
Wind Speed 22 km/h (NW)    
Max Wind Speed 50 km/h    
Max Gust Speed 63 km/h    
Visibility 16 kilometers    
Events      
T = Trace of Precipitation, MM = Missing Value Source: NWS Daily Summary

Daily Weather History Graph

Daily Weather History Graph

Search for Another Location

Airport:

Trip Planner

Search our weather history database for the weather conditions in past years. The results will help you decide how hot, cold, wet, or windy it might be!

Date:

Astronomy

Feb. 14, 2013 Rise Set
Actual Time 6:48 AM MST 5:23 PM MST
Civil Twilight 6:19 AM MST 5:51 PM MST
Nautical Twilight 5:46 AM MST 6:24 PM MST
Astronomical Twilight 5:14 AM MST 6:57 PM MST
Moon 8:45 AM MST (2/14) 10:34 PM MST (2/14)
Length of Visible Light 11h 32m
Length of Day
10h 35m
Waxing Crescent, 22% of the Moon is Illuminated
Feb 14
Waxing Crescent
Feb 17
First Quarter
Feb 25
Full
Mar 4
Last Quarter
Mar 11
New

Hourly Weather History & Observations

Time (MST) Temp. Windchill Dew Point Humidity Pressure Visibility Wind Dir Wind Speed Gust Speed Precip Events Conditions
12:53 AM -1.1 °C -6.4 °C -3.3 °C 85% 1016.1 hPa 16.1 km West 18.5 km/h / 5.1 m/s - N/A   Overcast
1:53 AM -0.6 °C -5.4 °C -3.3 °C 82% 1016.0 hPa 16.1 km West 16.7 km/h / 4.6 m/s - N/A   Overcast
2:53 AM -0.6 °C -5.4 °C -3.3 °C 82% 1015.7 hPa 16.1 km WNW 16.7 km/h / 4.6 m/s - N/A   Overcast
3:53 AM -0.6 °C -5.1 °C -3.3 °C 82% 1016.0 hPa 16.1 km NW 14.8 km/h / 4.1 m/s - N/A   Overcast
4:53 AM -1.1 °C -5.3 °C -3.9 °C 82% 1017.1 hPa 16.1 km NW 13.0 km/h / 3.6 m/s - N/A   Overcast
5:53 AM -1.1 °C -6.1 °C -3.9 °C 82% 1017.5 hPa 16.1 km WNW 16.7 km/h / 4.6 m/s - N/A   Overcast
6:45 AM -1.0 °C -8.1 °C -4.0 °C 80% 1016.8 hPa 16.1 km NW 33.3 km/h / 9.3 m/s - N/A   Overcast
6:53 AM -1.1 °C -7.2 °C -5.0 °C 75% 1019.0 hPa 16.1 km NW 24.1 km/h / 6.7 m/s - N/A   Overcast
7:14 AM -2.0 °C -8.3 °C -6.0 °C 74% 1016.8 hPa 16.1 km NNW 24.1 km/h / 6.7 m/s 40.7 km/h / 11.3 m/s N/A   Overcast
7:53 AM -1.7 °C -7.7 °C -6.7 °C 69% 1019.7 hPa 16.1 km NW 22.2 km/h / 6.2 m/s - N/A   Overcast
8:53 AM -1.7 °C -8.6 °C -6.7 °C 69% 1020.3 hPa 16.1 km NW 29.6 km/h / 8.2 m/s 46.3 km/h / 12.9 m/s N/A   Overcast
9:53 AM -1.7 °C -9.9 °C -7.2 °C 67% 1022.3 hPa 16.1 km NNW 42.6 km/h / 11.8 m/s 63.0 km/h / 17.5 m/s N/A   Overcast
10:53 AM -1.1 °C -9.3 °C -7.8 °C 61% 1023.3 hPa 16.1 km NNW 46.3 km/h / 12.9 m/s 61.1 km/h / 17.0 m/s N/A   Overcast
11:53 AM -0.6 °C -7.9 °C -8.3 °C 57% 1023.6 hPa 16.1 km NNW 37.0 km/h / 10.3 m/s 55.6 km/h / 15.4 m/s N/A   Clear
12:53 PM 0.0 °C -7.3 °C -9.4 °C 50% 1023.2 hPa 16.1 km NNW 38.9 km/h / 10.8 m/s 51.9 km/h / 14.4 m/s N/A   Clear
1:53 PM 0.0 °C -7.1 °C -10.0 °C 48% 1023.6 hPa 16.1 km NW 37.0 km/h / 10.3 m/s 50.0 km/h / 13.9 m/s N/A   Clear
2:53 PM 0.0 °C -6.8 °C -11.1 °C 44% 1024.1 hPa 16.1 km NW 33.3 km/h / 9.3 m/s 48.2 km/h / 13.4 m/s N/A   Mostly Cloudy
3:53 PM 0.0 °C -5.3 °C -7.0 °C 60% 1022.2 hPa 16.1 km North 20.4 km/h / 5.7 m/s 40.7 km/h / 11.3 m/s N/A   Mostly Cloudy
4:24 PM 0.0 °C -7.1 °C -12.0 °C 41% 1022.2 hPa 16.1 km NNW 37.0 km/h / 10.3 m/s 53.7 km/h / 14.9 m/s N/A   Mostly Cloudy
4:53 PM -1.1 °C -8.4 °C -11.7 °C 45% 1025.7 hPa 16.1 km NNW 35.2 km/h / 9.8 m/s 44.4 km/h / 12.3 m/s N/A   Clear
5:53 PM -4.4 °C -9.3 °C -8.9 °C 71% 1027.2 hPa 16.1 km NNE 13.0 km/h / 3.6 m/s - N/A   Clear
6:53 PM -6.7 °C -11.6 °C -8.3 °C 89% 1028.0 hPa 16.1 km North 11.1 km/h / 3.1 m/s - N/A   Clear
7:53 PM -10.0 °C - -11.7 °C 88% 1028.9 hPa 16.1 km Calm Calm - N/A   Clear
8:53 PM -9.4 °C - -10.0 °C 95% 1029.2 hPa 16.1 km Calm Calm - N/A   Clear
9:53 PM -10.0 °C -14.2 °C -12.2 °C 84% 1029.3 hPa 16.1 km NW 7.4 km/h / 2.1 m/s - N/A   Clear
10:53 PM -13.3 °C -19.6 °C -15.6 °C 83% 1030.2 hPa 16.1 km West 11.1 km/h / 3.1 m/s - N/A   Clear
11:53 PM -13.3 °C -19.6 °C -15.6 °C 83% 1029.9 hPa 16.1 km West 11.1 km/h / 3.1 m/s - N/A   Clear